Preview of NWS' New Version of Forecast
This preview is not operational and should not be used for support decisions.

Regional Weather Roundup (RWR)

Issued by Philadelphia/Mt Holly (PHI)

                            
000
ASUS41 KPHI 230612
RWRPHI

REGIONAL WEATHER ROUNDUP
NATIONAL WEATHER SERVICE MOUNT HOLLY NJ
200 AM EDT SAT MAR 23 2019

NOTE:  "FAIR" INDICATES FEW OR NO CLOUDS BELOW 12,000 FEET WITH NO
SIGNIFICANT WEATHER AND/OR OBSTRUCTIONS TO VISIBILITY.

 * = STATION DOES NOT REPORT PRECIPITATION (E.G. RAIN, SNOW, ETC.) 
        OR FOG.

NJZ015>026-230700-
SOUTHERN NEW JERSEY
  
CITY           SKY/WX    TMP DP  RH WIND       PRES   REMARKS
POMONA         FAIR      39  24  55 W18G37    29.69R WCI  30          
6HR MIN TEMP:  39; 6HR MAX TEMP:  42; 6HR PCP: TRACE;                

WILDWOOD*      FAIR      41  25  53 W23G30    29.74S                  
MILLVILLE      FAIR      38  22  52 W20G29    29.73R WCI  28          
WRIGHTSTOWN    MOCLDY    38  22  52 W17G26    29.64R WCI  29          
MOUNT HOLLY    CLOUDY    38  22  52 W16G28    29.69R WCI  29          
TRENTON        MOCLDY    37  23  56 NW20G33   29.64R WCI  27          
6HR MIN TEMP:  37; 6HR MAX TEMP:  40; 6HR PCP: TRACE;                


$$
NJZ001>014-230700-
NORTHERN NEW JERSEY
  
CITY           SKY/WX    TMP DP  RH WIND       PRES   REMARKS
SUSSEX         MIX PCPN  32  24  72 MISG      29.60R                  
ANDOVER*         N/A     32  19  58 NW9G28    29.62R WCI  24          
MORRISTOWN     CLOUDY    36  25  64 W7G29     29.61R WCI  30          
NEWARK         CLOUDY    37  24  59 W29G43    29.60R WCI  25          
TETERBORO      FLURRIES  36  25  64 NW22G29   29.58R WCI  25          
CALDWELL       MIX PCPN  35  22  58 NW17G35   29.60R WCI  25          
SOMERVILLE     CLOUDY    37  26  64 NW16G28   29.62R WCI  28          
ALLAIRE*       CLOUDY    38  24  57 W18G37    29.62R WCI  28          
TOMS RIVER*    MOCLDY    39  22  50 W21G31    29.64R WCI  29          

$$
PAZ043-044-047-054-055-060>062-066>071-230700-
EASTERN PENNSYLVANIA
  
CITY           SKY/WX    TMP DP  RH WIND       PRES   REMARKS
PHILADELPHIA   FAIR      38  20  48 W20G33    29.73R WCI  28          
6HR MIN TEMP:  38; 6HR MAX TEMP:  44;                                

NORTH PHILA    FAIR      39  22  50 W22G36    29.69R WCI  29          
BLUE BELL*     MOCLDY    34  23  64 W20G29    29.71R WCI  22          
DOYLESTOWN     CLOUDY    36  21  54 W22G33    29.66R WCI  25          
QUAKERTOWN*    CLOUDY    36  21  55 W18G28    29.69R WCI  25          
PERKASIE*      CLOUDY    36  21  55 W17G32    29.68R WCI  25          
POTTSTOWN      CLOUDY    34  21  59 NW20G33   29.72R WCI  23          
LANCASTER      MOCLDY    35  21  56 W22       29.77R WCI  23          
COATESVILLE    FAIR      32  21  64 W26       29.74R WCI  18          
READING        CLOUDY    36  23  59 W23G31    29.73R WCI  24          
6HR MIN TEMP:  36; 6HR MAX TEMP:  41; 6HR PCP: TRACE;                

ALLENTOWN      CLOUDY    37  24  59 W17G25    29.68R WCI  27          
6HR MIN TEMP:  37; 6HR MAX TEMP:  41; 6HR PCP: TRACE;                

MOUNT POCONO   LGT SNOW  24  21  88 NW25G36   29.57R FOG     WCI   8  
6HR MIN TEMP:  24; 6HR MAX TEMP:  31; 6HR PCP:  0.01;                

HAZLETON       CLOUDY    30  19  64 W18G36    29.69R WCI  18          
LEHIGHTON      CLOUDY    36  23  60 NW12G17   29.70R WCI  27          
WILKES BARRE   FLURRIES  29  21  72 NW15G25   29.69R WCI  18          

$$
DEZALL-MDZ008-012-015-019-020-230700-
DELAWARE AND EASTERN MARYLAND
  
CITY           SKY/WX    TMP DP  RH WIND       PRES   REMARKS
WILMINGTON     FAIR      37  20  50 W26G38    29.76R WCI  25          
6HR MIN TEMP:  36; 6HR MAX TEMP:  44;                                

DOVER          FAIR      39  20  46 W24G38    29.76R WCI  28          
GEORGETOWN     FAIR      43  21  41 NW18G39   29.78S                  
6HR MIN TEMP:  43; 6HR MAX TEMP:  47; 6HR PCP: TRACE;                

EASTON         FAIR      40  23  50 NW17G43   29.86R WCI  32          
PATUXENT       FAIR      41  26  55 W23G32    29.85                   
OCEAN CITY     FAIR      40  25  55 W13       29.79S WCI  32          
WALLOPS ISLAND FAIR      43  25  49 W21G33    29.82S                  
CAMBRIDGE      CLEAR     41  25  52 NW16G28   29.83R                  
SALISBURY      FAIR      41  27  57 W16G26    29.80S                  

$$
PAZ001-021-NYZ056-072-MDZ011-DCZ001-230700-
OTHER NEARBY LOCATIONS
  
CITY           SKY/WX    TMP DP  RH WIND       PRES   REMARKS
HARRISBURG     MOCLDY    35  21  56 NW25G36   29.80R WCI  23          
STATE COLLEGE  CLOUDY    29  19  64 W15G35    29.85R WCI  18          
WILLIAMSPORT   CLOUDY    32  19  58 NW13G24   29.79R WCI  22          
BINGHAMTON     LGT SNOW  23  19  85 NW15G30   29.64R FOG     WCI  10  
NEW YORK CITY  CLOUDY    37  24  59 W14G31    29.60R WCI  28          
BALTIMORE      FAIR      37  21  52 W26G37    29.83R WCI  25          
WASHINGTON DC  FAIR      41  24  51 NW21G28   29.88R                  

$$